TimeEST,TemperatureF,Dew PointF,Humidity,Sea Level PressureIn,VisibilityMPH,Wind Direction,Wind SpeedMPH,Gust SpeedMPH,PrecipitationIn,Events,Conditions,WindDirDegrees,DateUTC
12:56 AM,48.0,46.9,96,30.00,-9999.0,Calm,Calm,-,N/A,,Clear,0,2014-01-15 05:56:00
1:04 AM,46.0,45.0,96,29.99,-9999.0,Calm,Calm,-,N/A,,Scattered Clouds,0,2014-01-15 06:04:00
1:14 AM,46.0,44.1,93,29.99,-9999.0,Calm,Calm,-,N/A,,Mostly Cloudy,0,2014-01-15 06:14:00
1:56 AM,46.0,45.0,96,30.01,-9999.0,SW,4.6,-,N/A,,Overcast,230,2014-01-15 06:56:00
2:56 AM,44.1,43.0,96,30.00,-9999.0,West,3.5,-,N/A,,Overcast,260,2014-01-15 07:56:00
3:56 AM,44.1,43.0,96,30.00,-9999.0,Calm,Calm,-,N/A,,Overcast,0,2014-01-15 08:56:00
4:56 AM,39.9,39.0,97,30.00,-9999.0,Calm,Calm,-,N/A,,Overcast,0,2014-01-15 09:56:00
5:56 AM,41.0,39.9,96,30.00,-9999.0,Calm,Calm,-,N/A,,Overcast,0,2014-01-15 10:56:00
6:56 AM,42.1,41.0,96,29.99,-9999.0,Calm,Calm,-,N/A,,Overcast,0,2014-01-15 11:56:00
7:56 AM,43.0,42.1,97,30.00,-9999.0,NNW,3.5,-,N/A,,Overcast,340,2014-01-15 12:56:00
8:56 AM,45.0,44.1,97,30.00,-9999.0,Calm,Calm,-,N/A,,Overcast,0,2014-01-15 13:56:00
9:56 AM,48.0,46.9,96,30.01,-9999.0,NW,4.6,-,N/A,,Overcast,320,2014-01-15 14:56:00
10:56 AM,46.9,46.0,97,29.99,-9999.0,WNW,6.9,-,N/A,,Overcast,300,2014-01-15 15:56:00
11:56 AM,51.1,48.9,92,29.95,-9999.0,North,4.6,-,N/A,,Partly Cloudy,350,2014-01-15 16:56:00
1:56 PM,55.9,44.1,64,29.89,-9999.0,West,5.8,-,N/A,,Clear,270,2014-01-15 18:56:00
2:56 PM,55.0,48.9,80,29.88,-9999.0,NE,5.8,-,N/A,,Clear,40,2014-01-15 19:56:00
3:56 PM,53.1,48.0,83,29.90,-9999.0,ENE,4.6,-,N/A,,Clear,70,2014-01-15 20:56:00
4:56 PM,51.1,48.0,89,29.88,-9999.0,NE,4.6,-,N/A,,Clear,40,2014-01-15 21:56:00
5:56 PM,50.0,46.9,89,29.90,-9999.0,ESE,4.6,-,N/A,,Clear,120,2014-01-15 22:56:00
6:56 PM,50.0,48.0,93,29.89,-9999.0,ESE,4.6,-,N/A,,Clear,110,2014-01-15 23:56:00
7:56 PM,50.0,46.9,89,29.88,-9999.0,ESE,4.6,-,N/A,,Clear,110,2014-01-16 00:56:00
8:56 PM,48.9,46.9,93,29.88,-9999.0,SW,3.5,-,N/A,,Clear,220,2014-01-16 01:56:00
9:56 PM,50.0,48.0,93,29.89,-9999.0,WSW,4.6,-,N/A,,Clear,250,2014-01-16 02:56:00
10:56 PM,50.0,46.0,86,29.88,-9999.0,WSW,3.5,-,N/A,,Clear,250,2014-01-16 03:56:00
11:56 PM,48.0,45.0,89,29.87,-9999.0,SSE,4.6,-,N/A,,Clear,160,2014-01-16 04:56:00